Time,TemperatureF,DewpointF,PressureIn,WindDirection,WindDirectionDegrees,WindSpeedMPH,WindSpeedGustMPH,Humidity,HourlyPrecipIn,Conditions,Clouds,dailyrainin,SoftwareType,DateUTC
2013-12-03 00:01:00,62.8,61.0,29.98,NNW,337,0.0,0.0,94,0.00,,,0.00,Rainwise IP-100,2013-12-03 05:01:00,
2013-12-03 00:06:00,62.7,61.0,29.97,NNW,337,0.0,0.0,94,0.00,,,0.00,Rainwise IP-100,2013-12-03 05:06:00,
2013-12-03 00:11:00,62.6,61.0,29.98,NNW,337,0.0,0.0,94,0.00,,,0.00,Rainwise IP-100,2013-12-03 05:11:00,
2013-12-03 00:16:00,62.5,61.0,29.97,NNW,337,0.0,0.0,94,0.00,,,0.00,Rainwise IP-100,2013-12-03 05:16:00,
2013-12-03 00:21:00,62.5,61.0,29.97,NNW,337,0.0,0.0,94,0.00,,,0.00,Rainwise IP-100,2013-12-03 05:21:00,
2013-12-03 00:26:00,62.5,61.0,29.97,NNW,337,0.0,0.0,94,0.00,,,0.00,Rainwise IP-100,2013-12-03 05:26:00,
2013-12-03 00:31:00,62.5,61.0,29.96,NNW,337,0.0,0.0,94,0.00,,,0.00,Rainwise IP-100,2013-12-03 05:31:00,
2013-12-03 00:37:00,62.5,61.0,29.97,NNW,337,0.0,0.0,94,0.00,,,0.00,Rainwise IP-100,2013-12-03 05:37:00,
2013-12-03 00:42:00,62.5,61.0,29.97,NNW,337,0.0,0.0,95,0.00,,,0.00,Rainwise IP-100,2013-12-03 05:42:00,
2013-12-03 00:47:00,62.5,61.0,29.97,NNW,337,0.0,0.0,95,0.00,,,0.00,Rainwise IP-100,2013-12-03 05:47:00,
2013-12-03 00:52:00,62.4,61.0,29.97,NNW,337,0.0,0.0,95,0.00,,,0.00,Rainwise IP-100,2013-12-03 05:52:00,
2013-12-03 00:57:00,62.3,60.0,29.97,NNW,337,0.0,0.0,95,0.00,,,0.00,Rainwise IP-100,2013-12-03 05:57:00,
2013-12-03 01:02:00,62.2,60.0,29.97,NNW,337,0.0,0.0,95,0.00,,,0.00,Rainwise IP-100,2013-12-03 06:02:00,
2013-12-03 01:07:00,62.2,60.0,29.96,NNW,337,0.0,0.0,95,0.00,,,0.00,Rainwise IP-100,2013-12-03 06:07:00,
2013-12-03 01:10:00,62.2,60.0,29.97,NNW,337,0.0,0.0,95,0.00,,,0.00,Rainwise IP-100,2013-12-03 06:10:00,
2013-12-03 01:15:00,62.4,61.0,29.97,NNW,337,0.0,0.0,95,0.00,,,0.00,Rainwise IP-100,2013-12-03 06:15:00,
2013-12-03 01:21:00,62.4,61.0,29.96,NNW,337,0.0,0.0,95,0.00,,,0.00,Rainwise IP-100,2013-12-03 06:21:00,
2013-12-03 01:26:00,62.1,60.0,29.97,NNW,337,0.0,0.0,95,0.00,,,0.00,Rainwise IP-100,2013-12-03 06:26:00,
2013-12-03 01:31:00,61.9,60.0,29.97,WNW,292,0.0,1.0,95,0.00,,,0.00,Rainwise IP-100,2013-12-03 06:31:00,
2013-12-03 01:36:00,61.8,60.0,29.97,West,270,1.2,1.2,95,0.00,,,0.00,Rainwise IP-100,2013-12-03 06:36:00,
2013-12-03 01:41:00,61.8,60.0,29.97,West,270,0.0,2.0,96,0.00,,,0.00,Rainwise IP-100,2013-12-03 06:41:00,
2013-12-03 01:46:00,61.8,60.0,29.96,WSW,247,1.6,2.0,96,0.00,,,0.00,Rainwise IP-100,2013-12-03 06:46:00,
2013-12-03 01:51:00,61.8,60.0,29.97,WSW,247,0.0,2.0,96,0.00,,,0.00,Rainwise IP-100,2013-12-03 06:51:00,
2013-12-03 01:56:00,61.8,60.0,29.96,WSW,247,0.0,1.0,96,0.00,,,0.00,Rainwise IP-100,2013-12-03 06:56:00,
2013-12-03 02:02:00,61.9,61.0,29.96,WSW,247,0.0,1.0,96,0.00,,,0.00,Rainwise IP-100,2013-12-03 07:02:00,
2013-12-03 02:07:00,62.0,61.0,29.96,WSW,247,0.0,0.0,96,0.00,,,0.00,Rainwise IP-100,2013-12-03 07:07:00,
2013-12-03 02:12:00,62.0,61.0,29.97,WSW,247,0.0,0.0,96,0.00,,,0.00,Rainwise IP-100,2013-12-03 07:12:00,
2013-12-03 02:17:00,62.0,61.0,29.97,WSW,247,1.4,0.0,96,0.00,,,0.00,Rainwise IP-100,2013-12-03 07:17:00,
2013-12-03 02:22:00,62.0,61.0,29.97,WSW,247,0.0,1.0,96,0.00,,,0.00,Rainwise IP-100,2013-12-03 07:22:00,
2013-12-03 02:27:00,62.0,61.0,29.97,WNW,292,1.2,2.0,96,0.00,,,0.00,Rainwise IP-100,2013-12-03 07:27:00,
2013-12-03 02:32:00,62.1,61.0,29.96,WNW,292,0.0,2.0,96,0.00,,,0.00,Rainwise IP-100,2013-12-03 07:32:00,
2013-12-03 02:38:00,62.0,61.0,29.97,WNW,292,0.0,0.0,96,0.00,,,0.00,Rainwise IP-100,2013-12-03 07:38:00,
2013-12-03 02:43:00,62.0,61.0,29.97,WNW,292,0.0,0.0,96,0.00,,,0.00,Rainwise IP-100,2013-12-03 07:43:00,
2013-12-03 02:48:00,62.0,61.0,29.97,WNW,292,0.0,1.0,96,0.00,,,0.00,Rainwise IP-100,2013-12-03 07:48:00,
2013-12-03 02:53:00,62.1,61.0,29.97,WNW,292,0.0,2.0,96,0.00,,,0.00,Rainwise IP-100,2013-12-03 07:53:00,
2013-12-03 02:58:00,62.1,61.0,29.97,WNW,292,1.6,1.6,96,0.00,,,0.00,Rainwise IP-100,2013-12-03 07:58:00,
2013-12-03 03:03:00,62.2,61.0,29.97,WNW,292,1.6,2.0,96,0.00,,,0.00,Rainwise IP-100,2013-12-03 08:03:00,
2013-12-03 03:08:00,62.4,61.0,29.97,WSW,247,3.0,3.0,96,0.00,,,0.00,Rainwise IP-100,2013-12-03 08:08:00,
2013-12-03 03:13:00,62.4,61.0,29.97,WSW,247,2.6,4.0,96,0.00,,,0.00,Rainwise IP-100,2013-12-03 08:13:00,
2013-12-03 03:19:00,62.4,61.0,29.98,WSW,247,1.4,3.0,96,0.00,,,0.00,Rainwise IP-100,2013-12-03 08:19:00,
2013-12-03 03:24:00,62.5,61.0,29.97,WSW,247,0.0,1.0,96,0.00,,,0.00,Rainwise IP-100,2013-12-03 08:24:00,
2013-12-03 03:29:00,62.5,61.0,29.98,WSW,247,0.0,1.0,96,0.00,,,0.00,Rainwise IP-100,2013-12-03 08:29:00,
2013-12-03 03:34:00,62.6,61.0,29.98,WSW,247,0.0,1.0,96,0.00,,,0.00,Rainwise IP-100,2013-12-03 08:34:00,
2013-12-03 03:39:00,62.7,61.0,29.98,WNW,292,0.0,3.0,96,0.00,,,0.00,Rainwise IP-100,2013-12-03 08:39:00,
2013-12-03 03:44:00,62.7,61.0,29.98,WNW,292,1.4,1.4,96,0.00,,,0.00,Rainwise IP-100,2013-12-03 08:44:00,
2013-12-03 03:49:00,62.6,61.0,29.98,WNW,292,0.0,1.0,96,0.00,,,0.00,Rainwise IP-100,2013-12-03 08:49:00,
2013-12-03 03:55:00,62.7,61.0,29.97,WNW,292,1.2,1.2,96,0.00,,,0.00,Rainwise IP-100,2013-12-03 08:55:00,
2013-12-03 04:00:00,62.7,61.0,29.98,WSW,247,3.0,3.0,96,0.00,,,0.00,Rainwise IP-100,2013-12-03 09:00:00,
2013-12-03 04:05:00,62.8,61.0,29.98,WSW,247,2.3,3.0,96,0.00,,,0.00,Rainwise IP-100,2013-12-03 09:05:00,
2013-12-03 04:10:00,63.0,62.0,29.98,WNW,292,1.2,4.0,96,0.00,,,0.00,Rainwise IP-100,2013-12-03 09:10:00,
2013-12-03 04:15:00,63.1,62.0,29.98,WSW,247,2.6,3.0,96,0.00,,,0.00,Rainwise IP-100,2013-12-03 09:15:00,
2013-12-03 04:20:00,63.1,62.0,29.98,WSW,247,0.0,3.0,96,0.00,,,0.00,Rainwise IP-100,2013-12-03 09:20:00,
2013-12-03 04:25:00,63.2,62.0,29.98,WSW,247,0.0,3.0,96,0.00,,,0.00,Rainwise IP-100,2013-12-03 09:25:00,
2013-12-03 04:30:00,63.2,62.0,29.98,WSW,247,0.0,2.0,96,0.00,,,0.00,Rainwise IP-100,2013-12-03 09:30:00,
2013-12-03 04:36:00,63.3,62.0,29.98,West,270,0.0,2.0,96,0.00,,,0.00,Rainwise IP-100,2013-12-03 09:36:00,
2013-12-03 04:41:00,63.4,62.0,29.98,West,270,0.0,1.0,96,0.00,,,0.00,Rainwise IP-100,2013-12-03 09:41:00,
2013-12-03 04:46:00,63.4,62.0,29.98,West,270,0.0,1.0,96,0.00,,,0.00,Rainwise IP-100,2013-12-03 09:46:00,
2013-12-03 04:51:00,63.3,62.0,29.98,West,270,0.0,1.0,96,0.00,,,0.00,Rainwise IP-100,2013-12-03 09:51:00,
2013-12-03 04:56:00,63.4,62.0,29.98,West,270,0.0,0.0,96,0.00,,,0.00,Rainwise IP-100,2013-12-03 09:56:00,
2013-12-03 05:01:00,63.5,62.0,29.98,West,270,1.4,2.0,96,0.00,,,0.00,Rainwise IP-100,2013-12-03 10:01:00,
2013-12-03 05:06:00,63.6,62.0,29.98,West,270,0.0,1.0,96,0.00,,,0.00,Rainwise IP-100,2013-12-03 10:06:00,
2013-12-03 05:12:00,63.6,62.0,29.98,West,270,0.0,1.0,95,0.00,,,0.00,Rainwise IP-100,2013-12-03 10:12:00,
2013-12-03 05:17:00,63.6,62.0,29.98,West,270,0.0,1.0,95,0.00,,,0.00,Rainwise IP-100,2013-12-03 10:17:00,
2013-12-03 05:22:00,63.8,62.0,29.98,West,270,0.0,2.0,95,0.00,,,0.00,Rainwise IP-100,2013-12-03 10:22:00,
2013-12-03 05:27:00,63.9,62.0,29.98,West,270,0.0,1.0,95,0.00,,,0.00,Rainwise IP-100,2013-12-03 10:27:00,
2013-12-03 05:32:00,63.9,62.0,29.98,West,270,0.0,1.0,95,0.00,,,0.00,Rainwise IP-100,2013-12-03 10:32:00,
2013-12-03 05:37:00,63.9,62.0,29.98,West,270,0.0,0.0,95,0.00,,,0.00,Rainwise IP-100,2013-12-03 10:37:00,
2013-12-03 05:42:00,64.0,62.0,29.98,West,270,0.0,1.0,95,0.00,,,0.00,Rainwise IP-100,2013-12-03 10:42:00,
2013-12-03 05:47:00,64.1,62.0,29.99,West,270,0.0,0.0,95,0.00,,,0.00,Rainwise IP-100,2013-12-03 10:47:00,
2013-12-03 05:53:00,64.1,62.0,29.98,West,270,1.9,2.0,95,0.00,,,0.00,Rainwise IP-100,2013-12-03 10:53:00,
2013-12-03 05:58:00,64.2,62.0,29.98,West,270,0.0,1.0,95,0.00,,,0.00,Rainwise IP-100,2013-12-03 10:58:00,
2013-12-03 06:03:00,64.3,62.0,29.99,West,270,0.0,0.0,95,0.00,,,0.00,Rainwise IP-100,2013-12-03 11:03:00,
2013-12-03 06:08:00,64.3,62.0,29.99,West,270,0.0,1.0,95,0.00,,,0.00,Rainwise IP-100,2013-12-03 11:08:00,
2013-12-03 06:13:00,64.4,63.0,29.99,West,270,0.0,0.0,95,0.00,,,0.00,Rainwise IP-100,2013-12-03 11:13:00,
2013-12-03 06:18:00,64.4,63.0,30.00,West,270,1.4,0.0,95,0.00,,,0.00,Rainwise IP-100,2013-12-03 11:18:00,
2013-12-03 06:23:00,64.5,63.0,30.00,West,270,1.2,1.2,95,0.00,,,0.00,Rainwise IP-100,2013-12-03 11:23:00,
2013-12-03 06:29:00,64.6,63.0,30.00,West,270,0.0,1.0,95,0.00,,,0.00,Rainwise IP-100,2013-12-03 11:29:00,
2013-12-03 06:34:00,64.7,63.0,30.00,West,270,0.0,0.0,95,0.00,,,0.00,Rainwise IP-100,2013-12-03 11:34:00,
2013-12-03 06:39:00,64.7,63.0,30.00,West,270,0.0,3.0,95,0.00,,,0.00,Rainwise IP-100,2013-12-03 11:39:00,
2013-12-03 06:44:00,64.7,63.0,30.00,West,270,0.0,2.0,95,0.00,,,0.00,Rainwise IP-100,2013-12-03 11:44:00,
2013-12-03 06:49:00,64.7,63.0,30.01,West,270,0.0,0.0,95,0.00,,,0.00,Rainwise IP-100,2013-12-03 11:49:00,
2013-12-03 06:54:00,64.7,63.0,30.01,West,270,0.0,0.0,95,0.00,,,0.00,Rainwise IP-100,2013-12-03 11:54:00,
2013-12-03 06:59:00,64.8,63.0,30.01,West,270,0.0,0.0,95,0.00,,,0.00,Rainwise IP-100,2013-12-03 11:59:00,
2013-12-03 07:04:00,64.9,63.0,30.01,West,270,0.0,0.0,95,0.00,,,0.00,Rainwise IP-100,2013-12-03 12:04:00,
2013-12-03 07:10:00,64.9,63.0,30.01,West,270,0.0,0.0,95,0.00,,,0.00,Rainwise IP-100,2013-12-03 12:10:00,
2013-12-03 07:15:00,65.0,63.0,30.01,West,270,0.0,0.0,95,0.00,,,0.00,Rainwise IP-100,2013-12-03 12:15:00,
2013-12-03 07:20:00,64.9,63.0,30.01,West,270,0.0,0.0,95,0.00,,,0.00,Rainwise IP-100,2013-12-03 12:20:00,
2013-12-03 07:25:00,64.9,63.0,30.01,West,270,1.4,1.4,95,0.00,,,0.00,Rainwise IP-100,2013-12-03 12:25:00,
2013-12-03 07:30:00,65.1,63.0,30.01,West,270,0.0,2.0,95,0.00,,,0.00,Rainwise IP-100,2013-12-03 12:30:00,
2013-12-03 07:35:00,65.3,63.0,30.01,West,270,0.0,1.0,95,0.00,,,0.00,Rainwise IP-100,2013-12-03 12:35:00,
2013-12-03 07:40:00,65.3,63.0,30.02,West,270,0.0,0.0,95,0.00,,,0.00,Rainwise IP-100,2013-12-03 12:40:00,
2013-12-03 07:46:00,65.4,64.0,30.02,West,270,0.0,0.0,95,0.00,,,0.00,Rainwise IP-100,2013-12-03 12:46:00,
2013-12-03 07:51:00,65.3,63.0,30.02,West,270,0.0,0.0,95,0.00,,,0.00,Rainwise IP-100,2013-12-03 12:51:00,
2013-12-03 07:56:00,65.3,63.0,30.02,West,270,2.1,2.1,94,0.00,,,0.00,Rainwise IP-100,2013-12-03 12:56:00,
2013-12-03 08:01:00,65.5,63.0,30.02,West,270,0.0,2.0,94,0.00,,,0.00,Rainwise IP-100,2013-12-03 13:01:00,
2013-12-03 08:06:00,65.9,64.0,30.02,West,270,0.0,1.0,94,0.00,,,0.00,Rainwise IP-100,2013-12-03 13:06:00,
2013-12-03 08:11:00,66.1,64.0,30.02,West,270,0.0,0.0,94,0.00,,,0.00,Rainwise IP-100,2013-12-03 13:11:00,
2013-12-03 08:16:00,66.2,64.0,30.02,West,270,0.0,0.0,94,0.00,,,0.00,Rainwise IP-100,2013-12-03 13:16:00,
2013-12-03 08:21:00,66.3,64.0,30.03,West,270,2.3,2.3,93,0.00,,,0.00,Rainwise IP-100,2013-12-03 13:21:00,
2013-12-03 08:27:00,66.5,64.0,30.03,West,270,0.0,2.0,93,0.00,,,0.00,Rainwise IP-100,2013-12-03 13:27:00,
2013-12-03 08:32:00,66.9,65.0,30.03,West,270,0.0,1.0,93,0.00,,,0.00,Rainwise IP-100,2013-12-03 13:32:00,
2013-12-03 08:37:00,67.1,65.0,30.03,West,270,0.0,2.0,93,0.00,,,0.00,Rainwise IP-100,2013-12-03 13:37:00,
2013-12-03 08:42:00,67.6,65.0,30.03,West,270,0.0,2.0,92,0.00,,,0.00,Rainwise IP-100,2013-12-03 13:42:00,
2013-12-03 08:47:00,68.2,65.0,30.03,West,270,0.0,1.0,90,0.00,,,0.00,Rainwise IP-100,2013-12-03 13:47:00,
2013-12-03 08:51:00,68.6,65.0,30.03,West,270,0.0,2.0,89,0.00,,,0.00,Rainwise IP-100,2013-12-03 13:51:00,
2013-12-03 08:56:00,69.2,64.0,30.03,West,270,2.6,3.0,85,0.00,,,0.00,Rainwise IP-100,2013-12-03 13:56:00,
2013-12-03 09:01:00,70.5,64.0,30.03,West,270,1.6,3.0,81,0.00,,,0.00,Rainwise IP-100,2013-12-03 14:01:00,
2013-12-03 09:06:00,72.4,64.0,30.03,West,270,0.0,1.0,76,0.00,,,0.00,Rainwise IP-100,2013-12-03 14:06:00,
2013-12-03 09:12:00,74.1,64.0,30.03,West,270,0.0,0.0,71,0.00,,,0.00,Rainwise IP-100,2013-12-03 14:12:00,
2013-12-03 09:17:00,75.7,63.0,30.04,West,270,0.0,0.0,66,0.00,,,0.00,Rainwise IP-100,2013-12-03 14:17:00,
2013-12-03 09:22:00,77.7,63.0,30.04,West,270,0.0,0.0,60,0.00,,,0.00,Rainwise IP-100,2013-12-03 14:22:00,
2013-12-03 09:27:00,79.2,61.0,30.04,West,270,0.0,0.0,54,0.00,,,0.00,Rainwise IP-100,2013-12-03 14:27:00,
2013-12-03 09:32:00,79.6,60.0,30.04,West,270,0.0,0.0,51,0.00,,,0.00,Rainwise IP-100,2013-12-03 14:32:00,
2013-12-03 09:37:00,79.4,60.0,30.04,West,270,0.0,0.0,51,0.00,,,0.00,Rainwise IP-100,2013-12-03 14:37:00,
2013-12-03 09:42:00,79.3,60.0,30.05,West,270,0.0,0.0,51,0.00,,,0.00,Rainwise IP-100,2013-12-03 14:42:00,
2013-12-03 09:47:00,79.0,59.0,30.05,ESE,112,0.0,1.0,51,0.00,,,0.00,Rainwise IP-100,2013-12-03 14:47:00,
2013-12-03 09:53:00,78.7,59.0,30.05,ENE,67,0.0,3.0,51,0.00,,,0.00,Rainwise IP-100,2013-12-03 14:53:00,
2013-12-03 09:58:00,79.0,59.0,30.05,ENE,67,0.0,1.0,51,0.00,,,0.00,Rainwise IP-100,2013-12-03 14:58:00,
2013-12-03 10:03:00,79.9,60.0,30.05,ENE,67,2.3,2.3,50,0.00,,,0.00,Rainwise IP-100,2013-12-03 15:03:00,
2013-12-03 10:08:00,79.6,59.0,30.05,ENE,67,2.1,3.0,49,0.00,,,0.00,Rainwise IP-100,2013-12-03 15:08:00,
2013-12-03 10:13:00,79.9,60.0,30.04,ESE,112,2.1,2.1,50,0.00,,,0.00,Rainwise IP-100,2013-12-03 15:13:00,
2013-12-03 10:18:00,81.2,61.0,30.04,ESE,112,0.0,3.0,50,0.00,,,0.00,Rainwise IP-100,2013-12-03 15:18:00,
2013-12-03 10:23:00,81.7,60.0,30.04,ESE,112,1.2,2.0,49,0.00,,,0.00,Rainwise IP-100,2013-12-03 15:23:00,
2013-12-03 10:29:00,81.8,61.0,30.04,ESE,112,0.0,3.0,50,0.00,,,0.00,Rainwise IP-100,2013-12-03 15:29:00,
2013-12-03 10:34:00,81.7,61.0,30.04,ESE,112,0.0,3.0,50,0.00,,,0.00,Rainwise IP-100,2013-12-03 15:34:00,
2013-12-03 10:39:00,81.7,61.0,30.04,ESE,112,2.3,4.0,50,0.00,,,0.00,Rainwise IP-100,2013-12-03 15:39:00,
2013-12-03 10:44:00,80.9,61.0,30.04,East,90,2.8,4.0,51,0.00,,,0.00,Rainwise IP-100,2013-12-03 15:44:00,
2013-12-03 10:49:00,80.4,61.0,30.04,ENE,67,0.0,5.0,52,0.00,,,0.00,Rainwise IP-100,2013-12-03 15:49:00,
2013-12-03 10:54:00,81.0,62.0,30.04,East,90,0.0,3.0,53,0.00,,,0.00,Rainwise IP-100,2013-12-03 15:54:00,
2013-12-03 10:59:00,81.6,63.0,30.04,SSE,157,0.0,2.0,53,0.00,,,0.00,Rainwise IP-100,2013-12-03 15:59:00,
2013-12-03 11:04:00,82.2,63.0,30.04,SSE,157,1.2,4.0,52,0.00,,,0.00,Rainwise IP-100,2013-12-03 16:04:00,
2013-12-03 11:10:00,81.5,62.0,30.04,ENE,67,2.8,4.0,52,0.00,,,0.00,Rainwise IP-100,2013-12-03 16:10:00,
2013-12-03 11:15:00,80.6,62.0,30.03,East,90,4.4,5.0,53,0.00,,,0.00,Rainwise IP-100,2013-12-03 16:15:00,
2013-12-03 11:20:00,78.9,61.0,30.03,ENE,67,2.8,5.0,54,0.00,,,0.00,Rainwise IP-100,2013-12-03 16:20:00,
2013-12-03 11:25:00,78.7,61.0,30.03,ENE,67,2.8,4.0,55,0.00,,,0.00,Rainwise IP-100,2013-12-03 16:25:00,
2013-12-03 11:30:00,79.3,62.0,30.02,NNE,22,4.4,5.0,55,0.00,,,0.00,Rainwise IP-100,2013-12-03 16:30:00,
2013-12-03 11:35:00,79.5,62.0,30.02,NE,45,0.0,6.0,55,0.00,,,0.00,Rainwise IP-100,2013-12-03 16:35:00,
2013-12-03 11:40:00,79.5,62.0,30.02,ENE,67,0.0,6.0,55,0.00,,,0.00,Rainwise IP-100,2013-12-03 16:40:00,
2013-12-03 11:46:00,78.9,62.0,30.02,ENE,67,2.1,5.0,56,0.00,,,0.00,Rainwise IP-100,2013-12-03 16:46:00,
2013-12-03 11:51:00,78.8,62.0,30.01,East,90,3.0,6.0,57,0.00,,,0.00,Rainwise IP-100,2013-12-03 16:51:00,
2013-12-03 11:56:00,78.6,62.0,30.01,ENE,67,3.5,7.0,57,0.00,,,0.00,Rainwise IP-100,2013-12-03 16:56:00,
2013-12-03 12:01:00,78.9,62.0,30.02,ENE,67,3.7,6.0,56,0.00,,,0.00,Rainwise IP-100,2013-12-03 17:01:00,
2013-12-03 12:06:00,78.4,62.0,30.01,ENE,67,2.1,4.0,57,0.00,,,0.00,Rainwise IP-100,2013-12-03 17:06:00,
2013-12-03 12:11:00,77.1,61.0,30.01,ENE,67,3.3,5.0,58,0.00,,,0.00,Rainwise IP-100,2013-12-03 17:11:00,
2013-12-03 12:16:00,77.0,61.0,30.01,ENE,67,2.6,5.0,59,0.00,,,0.00,Rainwise IP-100,2013-12-03 17:16:00,
2013-12-03 12:21:00,77.3,62.0,30.01,NE,45,3.0,4.0,59,0.00,,,0.00,Rainwise IP-100,2013-12-03 17:21:00,
2013-12-03 12:27:00,77.1,61.0,30.01,East,90,3.0,5.0,59,0.00,,,0.00,Rainwise IP-100,2013-12-03 17:27:00,
2013-12-03 12:32:00,76.8,62.0,30.00,East,90,1.6,6.0,60,0.00,,,0.00,Rainwise IP-100,2013-12-03 17:32:00,
2013-12-03 12:37:00,77.0,62.0,30.00,East,90,2.8,6.0,60,0.00,,,0.00,Rainwise IP-100,2013-12-03 17:37:00,
2013-12-03 12:42:00,76.9,62.0,30.01,East,90,3.5,6.0,60,0.00,,,0.00,Rainwise IP-100,2013-12-03 17:42:00,
2013-12-03 12:47:00,76.8,62.0,30.00,SSE,157,0.0,5.0,61,0.00,,,0.00,Rainwise IP-100,2013-12-03 17:47:00,
2013-12-03 12:52:00,77.0,63.0,30.00,ESE,112,0.0,4.0,62,0.00,,,0.00,Rainwise IP-100,2013-12-03 17:52:00,
2013-12-03 12:57:00,77.1,62.0,29.99,ENE,67,4.7,5.0,61,0.00,,,0.00,Rainwise IP-100,2013-12-03 17:57:00,
2013-12-03 13:03:00,76.9,62.0,30.00,SSE,157,0.0,5.0,61,0.00,,,0.00,Rainwise IP-100,2013-12-03 18:03:00,
2013-12-03 13:08:00,77.2,63.0,29.99,ESE,112,0.0,4.0,61,0.00,,,0.00,Rainwise IP-100,2013-12-03 18:08:00,
2013-12-03 13:13:00,78.1,63.0,29.99,NE,45,4.7,5.0,61,0.00,,,0.00,Rainwise IP-100,2013-12-03 18:13:00,
2013-12-03 13:18:00,78.0,63.0,30.00,East,90,0.0,5.0,60,0.00,,,0.00,Rainwise IP-100,2013-12-03 18:18:00,
2013-12-03 13:23:00,78.1,63.0,29.99,ESE,112,2.8,2.8,61,0.00,,,0.00,Rainwise IP-100,2013-12-03 18:23:00,
2013-12-03 13:28:00,78.5,64.0,29.99,ESE,112,0.0,4.0,61,0.00,,,0.00,Rainwise IP-100,2013-12-03 18:28:00,
2013-12-03 13:33:00,78.1,63.0,29.99,SSW,202,0.0,5.0,61,0.00,,,0.00,Rainwise IP-100,2013-12-03 18:33:00,
2013-12-03 13:38:00,77.8,63.0,29.99,East,90,0.0,4.0,60,0.00,,,0.00,Rainwise IP-100,2013-12-03 18:38:00,
2013-12-03 13:44:00,78.0,63.0,30.00,SE,135,0.0,2.0,61,0.00,,,0.00,Rainwise IP-100,2013-12-03 18:44:00,
2013-12-03 13:49:00,78.2,64.0,29.99,SSE,157,3.0,3.0,62,0.00,,,0.00,Rainwise IP-100,2013-12-03 18:49:00,
2013-12-03 13:54:00,77.9,63.0,29.99,East,90,1.9,5.0,61,0.00,,,0.00,Rainwise IP-100,2013-12-03 18:54:00,
2013-12-03 13:59:00,77.7,63.0,29.99,ENE,67,1.6,4.0,61,0.00,,,0.00,Rainwise IP-100,2013-12-03 18:59:00,
2013-12-03 14:04:00,77.8,63.0,29.99,ESE,112,1.4,4.0,61,0.00,,,0.00,Rainwise IP-100,2013-12-03 19:04:00,
2013-12-03 14:09:00,77.9,63.0,29.99,ESE,112,1.2,4.0,61,0.00,,,0.00,Rainwise IP-100,2013-12-03 19:09:00,
2013-12-03 14:14:00,77.8,64.0,29.99,ESE,112,1.2,5.0,62,0.00,,,0.00,Rainwise IP-100,2013-12-03 19:14:00,
2013-12-03 14:20:00,77.5,63.0,29.98,East,90,1.2,5.0,61,0.00,,,0.00,Rainwise IP-100,2013-12-03 19:20:00,
2013-12-03 14:25:00,77.3,63.0,29.99,ESE,112,0.0,3.0,62,0.00,,,0.00,Rainwise IP-100,2013-12-03 19:25:00,
2013-12-03 14:30:00,77.3,64.0,29.99,ESE,112,1.6,5.0,63,0.00,,,0.00,Rainwise IP-100,2013-12-03 19:30:00,
2013-12-03 14:35:00,77.4,64.0,29.99,ESE,112,0.0,7.0,63,0.00,,,0.00,Rainwise IP-100,2013-12-03 19:35:00,
2013-12-03 14:40:00,77.9,64.0,29.98,ESE,112,3.0,3.0,63,0.00,,,0.00,Rainwise IP-100,2013-12-03 19:40:00,
2013-12-03 14:45:00,77.8,64.0,29.98,ESE,112,1.4,4.0,62,0.00,,,0.00,Rainwise IP-100,2013-12-03 19:45:00,
2013-12-03 14:50:00,77.4,63.0,29.99,ENE,67,1.2,4.0,62,0.00,,,0.00,Rainwise IP-100,2013-12-03 19:50:00,
2013-12-03 14:55:00,77.4,64.0,29.98,ESE,112,1.9,3.0,63,0.00,,,0.00,Rainwise IP-100,2013-12-03 19:55:00,
2013-12-03 15:01:00,77.3,64.0,29.99,ESE,112,1.6,3.0,63,0.00,,,0.00,Rainwise IP-100,2013-12-03 20:01:00,
2013-12-03 15:06:00,77.1,63.0,29.98,ESE,112,1.4,3.0,63,0.00,,,0.00,Rainwise IP-100,2013-12-03 20:06:00,
2013-12-03 15:11:00,76.7,64.0,29.98,East,90,3.3,4.0,64,0.00,,,0.00,Rainwise IP-100,2013-12-03 20:11:00,
2013-12-03 15:16:00,76.4,64.0,29.98,ENE,67,0.0,5.0,65,0.00,,,0.00,Rainwise IP-100,2013-12-03 20:16:00,
2013-12-03 15:21:00,76.4,64.0,29.98,East,90,4.0,4.0,65,0.00,,,0.00,Rainwise IP-100,2013-12-03 20:21:00,
2013-12-03 15:26:00,76.4,64.0,29.99,ESE,112,1.4,4.0,65,0.00,,,0.00,Rainwise IP-100,2013-12-03 20:26:00,
2013-12-03 15:31:00,76.3,63.0,29.98,ESE,112,2.8,4.0,65,0.00,,,0.00,Rainwise IP-100,2013-12-03 20:31:00,
2013-12-03 15:37:00,76.3,63.0,29.98,ESE,112,0.0,7.0,65,0.00,,,0.00,Rainwise IP-100,2013-12-03 20:37:00,
2013-12-03 15:42:00,76.4,64.0,29.98,ESE,112,1.2,4.0,66,0.00,,,0.00,Rainwise IP-100,2013-12-03 20:42:00,
2013-12-03 15:47:00,76.5,64.0,29.98,SSE,157,3.0,5.0,66,0.00,,,0.00,Rainwise IP-100,2013-12-03 20:47:00,
2013-12-03 15:52:00,76.6,64.0,29.98,SE,135,2.3,7.0,65,0.00,,,0.00,Rainwise IP-100,2013-12-03 20:52:00,
2013-12-03 15:57:00,76.3,63.0,29.98,SE,135,4.4,6.0,65,0.00,,,0.00,Rainwise IP-100,2013-12-03 20:57:00,
2013-12-03 16:02:00,76.2,63.0,29.98,SE,135,3.7,6.0,65,0.00,,,0.00,Rainwise IP-100,2013-12-03 21:02:00,
2013-12-03 16:07:00,76.2,64.0,29.98,SE,135,3.7,6.0,66,0.00,,,0.00,Rainwise IP-100,2013-12-03 21:07:00,
2013-12-03 16:12:00,76.1,63.0,29.98,ESE,112,2.3,5.0,66,0.00,,,0.00,Rainwise IP-100,2013-12-03 21:12:00,
2013-12-03 16:18:00,76.1,64.0,29.98,SSE,157,2.6,6.0,67,0.00,,,0.00,Rainwise IP-100,2013-12-03 21:18:00,
2013-12-03 16:23:00,76.1,64.0,29.98,ESE,112,3.3,5.0,67,0.00,,,0.00,Rainwise IP-100,2013-12-03 21:23:00,
2013-12-03 16:28:00,75.9,64.0,29.98,ESE,112,1.9,7.0,68,0.00,,,0.00,Rainwise IP-100,2013-12-03 21:28:00,
2013-12-03 16:33:00,75.9,64.0,29.98,ESE,112,4.9,5.0,68,0.00,,,0.00,Rainwise IP-100,2013-12-03 21:33:00,
2013-12-03 16:38:00,75.9,64.0,29.98,SSE,157,3.7,7.0,68,0.00,,,0.00,Rainwise IP-100,2013-12-03 21:38:00,
2013-12-03 16:43:00,75.9,64.0,29.98,SSE,157,2.6,7.0,68,0.00,,,0.00,Rainwise IP-100,2013-12-03 21:43:00,
2013-12-03 16:48:00,75.9,64.0,29.98,SE,135,4.4,6.0,68,0.00,,,0.00,Rainwise IP-100,2013-12-03 21:48:00,
2013-12-03 16:54:00,75.8,64.0,29.98,ESE,112,0.0,5.0,68,0.00,,,0.00,Rainwise IP-100,2013-12-03 21:54:00,
2013-12-03 16:59:00,75.8,64.0,29.99,South,180,2.1,4.0,69,0.00,,,0.00,Rainwise IP-100,2013-12-03 21:59:00,
2013-12-03 17:04:00,75.7,64.0,29.98,SE,135,1.9,5.0,69,0.00,,,0.00,Rainwise IP-100,2013-12-03 22:04:00,
2013-12-03 17:09:00,75.7,64.0,29.99,SE,135,4.9,6.0,69,0.00,,,0.00,Rainwise IP-100,2013-12-03 22:09:00,
2013-12-03 17:14:00,75.7,64.0,29.99,SSE,157,1.6,6.0,69,0.00,,,0.00,Rainwise IP-100,2013-12-03 22:14:00,
2013-12-03 17:19:00,75.6,64.0,29.99,SE,135,3.0,3.0,69,0.00,,,0.00,Rainwise IP-100,2013-12-03 22:19:00,
2013-12-03 17:24:00,75.5,64.0,30.00,SSW,202,3.7,3.7,69,0.00,,,0.00,Rainwise IP-100,2013-12-03 22:24:00,
2013-12-03 17:29:00,75.4,65.0,30.00,SSW,202,1.2,5.0,70,0.00,,,0.00,Rainwise IP-100,2013-12-03 22:29:00,
2013-12-03 17:35:00,75.3,65.0,30.00,South,180,2.3,5.0,70,0.00,,,0.00,Rainwise IP-100,2013-12-03 22:35:00,
2013-12-03 17:40:00,75.3,65.0,30.00,SSE,157,0.0,3.0,70,0.00,,,0.00,Rainwise IP-100,2013-12-03 22:40:00,
2013-12-03 17:45:00,75.3,65.0,30.00,ESE,112,1.6,4.0,70,0.00,,,0.00,Rainwise IP-100,2013-12-03 22:45:00,
2013-12-03 17:50:00,75.3,65.0,30.00,SSW,202,2.1,5.0,70,0.00,,,0.00,Rainwise IP-100,2013-12-03 22:50:00,
2013-12-03 17:55:00,75.3,65.0,30.00,South,180,0.0,3.0,70,0.00,,,0.00,Rainwise IP-100,2013-12-03 22:55:00,
2013-12-03 18:00:00,75.3,65.0,30.00,SSW,202,3.5,3.5,70,0.00,,,0.00,Rainwise IP-100,2013-12-03 23:00:00,
2013-12-03 18:05:00,75.2,65.0,30.00,South,180,1.9,5.0,70,0.00,,,0.00,Rainwise IP-100,2013-12-03 23:05:00,
2013-12-03 18:11:00,75.3,65.0,30.00,SSE,157,5.6,5.6,70,0.00,,,0.00,Rainwise IP-100,2013-12-03 23:11:00,
2013-12-03 18:16:00,75.2,65.0,30.00,SSW,202,1.9,5.0,71,0.00,,,0.00,Rainwise IP-100,2013-12-03 23:16:00,
2013-12-03 18:21:00,75.1,65.0,30.01,SSW,202,4.4,8.0,71,0.00,,,0.00,Rainwise IP-100,2013-12-03 23:21:00,
2013-12-03 18:26:00,75.1,65.0,30.01,SSE,157,2.6,6.0,71,0.00,,,0.00,Rainwise IP-100,2013-12-03 23:26:00,
2013-12-03 18:31:00,75.0,65.0,30.01,SSW,202,4.0,4.0,72,0.00,,,0.00,Rainwise IP-100,2013-12-03 23:31:00,
2013-12-03 18:36:00,74.8,65.0,30.01,SSW,202,3.3,5.0,72,0.00,,,0.00,Rainwise IP-100,2013-12-03 23:36:00,
2013-12-03 18:41:00,74.6,66.0,30.01,South,180,4.0,4.0,73,0.00,,,0.00,Rainwise IP-100,2013-12-03 23:41:00,
2013-12-03 18:46:00,74.5,66.0,30.01,SSW,202,4.4,7.0,74,0.00,,,0.00,Rainwise IP-100,2013-12-03 23:46:00,
2013-12-03 18:52:00,74.6,66.0,30.01,South,180,2.8,5.0,74,0.00,,,0.00,Rainwise IP-100,2013-12-03 23:52:00,
2013-12-03 18:57:00,74.5,66.0,30.02,SSW,202,1.4,4.0,74,0.00,,,0.00,Rainwise IP-100,2013-12-03 23:57:00,
2013-12-03 19:02:00,74.3,66.0,30.01,South,180,4.7,5.0,74,0.00,,,0.00,Rainwise IP-100,2013-12-04 00:02:00,
2013-12-03 19:07:00,74.2,66.0,30.02,SSW,202,3.3,5.0,75,0.00,,,0.00,Rainwise IP-100,2013-12-04 00:07:00,
2013-12-03 19:12:00,74.2,66.0,30.02,SSW,202,2.1,4.0,75,0.00,,,0.00,Rainwise IP-100,2013-12-04 00:12:00,
2013-12-03 19:17:00,74.1,66.0,30.02,SSW,202,4.0,5.0,75,0.00,,,0.00,Rainwise IP-100,2013-12-04 00:17:00,
2013-12-03 19:22:00,74.2,66.0,30.02,SSW,202,2.3,5.0,75,0.00,,,0.00,Rainwise IP-100,2013-12-04 00:22:00,
2013-12-03 19:28:00,74.2,66.0,30.02,SSW,202,2.8,5.0,75,0.00,,,0.00,Rainwise IP-100,2013-12-04 00:28:00,
2013-12-03 19:33:00,74.1,66.0,30.02,SSW,202,3.5,4.0,75,0.00,,,0.00,Rainwise IP-100,2013-12-04 00:33:00,
2013-12-03 19:38:00,74.0,66.0,30.02,SSW,202,2.3,4.0,75,0.00,,,0.00,Rainwise IP-100,2013-12-04 00:38:00,
2013-12-03 19:43:00,74.0,66.0,30.02,SSW,202,4.9,5.0,76,0.00,,,0.00,Rainwise IP-100,2013-12-04 00:43:00,
2013-12-03 19:48:00,74.0,66.0,30.02,SSW,202,2.8,5.0,76,0.00,,,0.00,Rainwise IP-100,2013-12-04 00:48:00,
2013-12-03 19:53:00,73.9,66.0,30.02,SSW,202,2.8,3.0,76,0.00,,,0.00,Rainwise IP-100,2013-12-04 00:53:00,
2013-12-03 19:58:00,73.9,66.0,30.03,SSW,202,3.7,4.0,76,0.00,,,0.00,Rainwise IP-100,2013-12-04 00:58:00,
2013-12-03 20:03:00,73.9,66.0,30.03,South,180,2.6,4.0,76,0.00,,,0.00,Rainwise IP-100,2013-12-04 01:03:00,
2013-12-03 20:09:00,73.9,66.0,30.03,SSW,202,2.3,4.0,76,0.00,,,0.00,Rainwise IP-100,2013-12-04 01:09:00,
2013-12-03 20:14:00,73.8,66.0,30.04,SSW,202,0.0,3.0,77,0.00,,,0.00,Rainwise IP-100,2013-12-04 01:14:00,
2013-12-03 20:19:00,73.7,66.0,30.04,SSW,202,1.6,4.0,77,0.00,,,0.00,Rainwise IP-100,2013-12-04 01:19:00,
2013-12-03 20:24:00,73.5,66.0,30.04,SSW,202,0.0,3.0,77,0.00,,,0.00,Rainwise IP-100,2013-12-04 01:24:00,
2013-12-03 20:29:00,73.4,66.0,30.05,SSW,202,0.0,2.0,77,0.00,,,0.00,Rainwise IP-100,2013-12-04 01:29:00,
2013-12-03 20:34:00,73.3,66.0,30.04,WSW,247,0.0,2.0,77,0.00,,,0.00,Rainwise IP-100,2013-12-04 01:34:00,
2013-12-03 20:39:00,73.1,66.0,30.05,WSW,247,0.0,2.0,78,0.00,,,0.00,Rainwise IP-100,2013-12-04 01:39:00,
2013-12-03 20:45:00,72.9,66.0,30.05,SSW,202,0.0,2.0,78,0.00,,,0.00,Rainwise IP-100,2013-12-04 01:45:00,
2013-12-03 20:50:00,72.8,65.0,30.05,SSW,202,0.0,1.0,78,0.00,,,0.00,Rainwise IP-100,2013-12-04 01:50:00,
2013-12-03 20:55:00,72.6,66.0,30.05,SSW,202,0.0,1.0,79,0.00,,,0.00,Rainwise IP-100,2013-12-04 01:55:00,
2013-12-03 21:00:00,72.2,65.0,30.05,SSW,202,0.0,2.0,79,0.00,,,0.00,Rainwise IP-100,2013-12-04 02:00:00,
2013-12-03 21:05:00,72.1,65.0,30.05,SSW,202,0.0,0.0,80,0.00,,,0.00,Rainwise IP-100,2013-12-04 02:05:00,
2013-12-03 21:10:00,71.9,65.0,30.05,WSW,247,1.2,2.0,80,0.00,,,0.00,Rainwise IP-100,2013-12-04 02:10:00,
2013-12-03 21:15:00,71.8,65.0,30.05,SW,225,0.0,1.0,81,0.00,,,0.00,Rainwise IP-100,2013-12-04 02:15:00,
2013-12-03 21:20:00,71.7,65.0,30.05,SW,225,0.0,0.0,81,0.00,,,0.00,Rainwise IP-100,2013-12-04 02:20:00,
2013-12-03 21:26:00,71.5,65.0,30.06,SW,225,0.0,0.0,81,0.00,,,0.00,Rainwise IP-100,2013-12-04 02:26:00,
2013-12-03 21:31:00,71.4,65.0,30.06,SW,225,0.0,0.0,82,0.00,,,0.00,Rainwise IP-100,2013-12-04 02:31:00,
2013-12-03 21:36:00,71.2,66.0,30.06,SW,225,0.0,0.0,83,0.00,,,0.00,Rainwise IP-100,2013-12-04 02:36:00,
2013-12-03 21:41:00,71.0,65.0,30.06,SW,225,0.0,0.0,83,0.00,,,0.00,Rainwise IP-100,2013-12-04 02:41:00,
2013-12-03 21:46:00,70.8,65.0,30.06,SW,225,0.0,0.0,84,0.00,,,0.00,Rainwise IP-100,2013-12-04 02:46:00,
2013-12-03 21:51:00,70.7,65.0,30.06,SW,225,0.0,0.0,84,0.00,,,0.00,Rainwise IP-100,2013-12-04 02:51:00,
2013-12-03 21:56:00,70.7,66.0,30.06,SW,225,0.0,0.0,85,0.00,,,0.00,Rainwise IP-100,2013-12-04 02:56:00,
2013-12-03 22:02:00,70.6,66.0,30.06,SW,225,0.0,0.0,85,0.00,,,0.00,Rainwise IP-100,2013-12-04 03:02:00,
2013-12-03 22:07:00,70.4,66.0,30.06,SW,225,0.0,0.0,86,0.00,,,0.00,Rainwise IP-100,2013-12-04 03:07:00,
2013-12-03 22:12:00,70.4,66.0,30.06,SSW,202,2.3,3.0,86,0.00,,,0.00,Rainwise IP-100,2013-12-04 03:12:00,
2013-12-03 22:17:00,70.5,66.0,30.06,SSW,202,2.3,3.0,87,0.00,,,0.00,Rainwise IP-100,2013-12-04 03:17:00,
2013-12-03 22:22:00,70.5,66.0,30.06,SSW,202,2.3,4.0,87,0.00,,,0.00,Rainwise IP-100,2013-12-04 03:22:00,
2013-12-03 22:27:00,70.6,66.0,30.06,SSW,202,2.6,4.0,87,0.00,,,0.00,Rainwise IP-100,2013-12-04 03:27:00,
2013-12-03 22:32:00,70.7,66.0,30.06,SSW,202,2.8,5.0,87,0.00,,,0.00,Rainwise IP-100,2013-12-04 03:32:00,
2013-12-03 22:37:00,70.7,66.0,30.06,SSW,202,3.5,4.0,87,0.00,,,0.00,Rainwise IP-100,2013-12-04 03:37:00,
2013-12-03 22:43:00,70.8,66.0,30.06,South,180,2.8,4.0,87,0.00,,,0.00,Rainwise IP-100,2013-12-04 03:43:00,
2013-12-03 22:48:00,70.9,66.0,30.06,SSW,202,3.0,4.0,87,0.00,,,0.00,Rainwise IP-100,2013-12-04 03:48:00,
2013-12-03 22:53:00,71.0,66.0,30.05,SSW,202,3.3,4.0,86,0.00,,,0.00,Rainwise IP-100,2013-12-04 03:53:00,
2013-12-03 22:58:00,71.0,66.0,30.06,SSW,202,3.0,4.0,86,0.00,,,0.00,Rainwise IP-100,2013-12-04 03:58:00,
2013-12-03 23:03:00,70.9,66.0,30.06,SSW,202,1.9,4.0,86,0.00,,,0.00,Rainwise IP-100,2013-12-04 04:03:00,
2013-12-03 23:08:00,70.8,66.0,30.06,SSW,202,1.4,3.0,86,0.00,,,0.00,Rainwise IP-100,2013-12-04 04:08:00,
2013-12-03 23:13:00,70.8,66.0,30.06,SSW,202,1.4,3.0,86,0.00,,,0.00,Rainwise IP-100,2013-12-04 04:13:00,
2013-12-03 23:19:00,70.7,66.0,30.06,SSW,202,0.0,3.0,86,0.00,,,0.00,Rainwise IP-100,2013-12-04 04:19:00,
2013-12-03 23:24:00,70.6,66.0,30.06,SSW,202,1.4,2.0,86,0.00,,,0.00,Rainwise IP-100,2013-12-04 04:24:00,
2013-12-03 23:29:00,70.6,66.0,30.06,SSW,202,2.6,3.0,87,0.00,,,0.00,Rainwise IP-100,2013-12-04 04:29:00,
2013-12-03 23:34:00,70.6,66.0,30.06,SSW,202,1.6,3.0,87,0.00,,,0.00,Rainwise IP-100,2013-12-04 04:34:00,
2013-12-03 23:39:00,70.7,66.0,30.06,SSW,202,3.0,4.0,87,0.00,,,0.00,Rainwise IP-100,2013-12-04 04:39:00,
2013-12-03 23:44:00,70.7,66.0,30.06,SSW,202,1.4,4.0,87,0.00,,,0.00,Rainwise IP-100,2013-12-04 04:44:00,
2013-12-03 23:49:00,70.7,66.0,30.06,SSW,202,3.3,4.0,86,0.00,,,0.00,Rainwise IP-100,2013-12-04 04:49:00,
2013-12-03 23:54:00,70.7,66.0,30.05,SSW,202,3.3,4.0,86,0.00,,,0.00,Rainwise IP-100,2013-12-04 04:54:00,